Location: *
(48.8489°N, 2.3218°E)
Time: 23:12:15
(UTC+00:00)

Meteor 1-12 Rocket - Pass Details

Date: 23 August 2019
Orbit: 854 x 927 km, 81.2° (Epoch: 19 September)

Event Time Altitude Azimuth Distance (km) Brightness Sun altitude
Exits shadow 22:36:22 69° 222° (SW) 970 4.3 -27.5°
Maximum altitude 22:37:03 79° 283° (WNW) 928 4.3 -27.5°
Drops below altitude 10° 22:42:56 10° 10° (N) 2,575 7.4 -27.9°
Sets 22:45:23 0° 12° (NNE) 3,508 8.3 -28.0°
